QPF
0.00 0.00 0.00 0.00 0.02 0.01 0.00 0.00 0.00 0.00 0.00 0.00 0.00 0.00 0.00 0.00 0.00 0.00 0.01 0.01 0.01 0.01 0.01 0.02 0.02 0.01 0.01 0.00 0.00 0.00 0.00 0.00 0.00 0.00 0.00 0.00 0.00 0.01 0.02 0.02 0.01 0.00 0.01
0.00 0.00 0.00 0.00 0.01 0.01 0.00 0.00 0.00 0.00 0.00 0.00 0.00 0.00 0.00 0.00 0.00 0.00 0.00 0.00 0.01 0.01 0.01 0.01 0.01 0.01 0.00 0.00 0.00 0.00 0.00 0.00 0.00 0.00 0.00 0.00 0.00 0.00 0.01 0.01 0.00 0.01 0.01
0.00 0.00 0.00 0.00 0.01 0.01 0.01 0.01 0.00 0.00 0.00 0.00 0.00 0.00 0.00 0.00 0.00 0.00 0.00 0.01 0.01 0.02 0.01 0.01 0.00 0.00 0.00 0.00 0.00 0.00 0.00 0.00 0.00 0.00 0.00 0.00 0.00 0.00 0.01 0.01 0.01 0.01 0.01
0.00 0.00 0.00 0.00 0.00 0.00 0.00 0.00 0.00 0.00 0.00 0.00 0.00 0.00 0.00 0.00 0.00 0.00 0.00 0.01 0.01 0.02 0.01 0.01 0.00 0.00 0.00 0.00 0.00 0.00 0.00 0.00 0.00 0.01 0.01 0.01 0.00 0.01 0.02 0.02 0.02 0.01 0.01
0.00 0.00 0.00 0.00 0.00 0.00 0.00 0.00 0.00 0.00 0.00 0.00 0.00 0.00 0.00 0.00 0.00 0.00 0.00 0.00 0.01 0.01 0.01 0.00 0.00 0.00 0.00 0.00 0.00 0.00 0.00 0.00 0.01 0.01 0.02 0.02 0.01 0.02 0.02 0.03 0.04 0.04 0.02
0.00 0.00 0.00 0.00 0.00 0.00 0.00 0.00 0.00 0.00 0.00 0.00 0.00 0.00 0.00 0.00 0.00 0.00 0.00 0.00 0.00 0.00 0.00 0.00 0.00 0.00 0.00 0.00 0.00 0.00 0.00 0.00 0.01 0.01 0.01 0.02 0.01 0.02 0.03 0.03 0.05 0.05 0.03
0.00 0.00 0.00 0.00 0.00 0.00 0.00 0.00 0.00 0.00 0.00 0.00 0.00 0.00 0.00 0.00 0.00 0.00 0.00 0.00 0.00 0.00 0.00 0.00 0.01 0.01 0.00 0.00 0.00 0.00 0.00 0.00 0.00 0.01 0.01 0.01 0.01 0.01 0.02 0.02 0.04 0.04 0.03
0.00 0.00 0.00 0.00 0.00 0.00 0.00 0.00 0.00 0.00 0.00 0.00 0.00 0.00 0.00 0.00 0.00 0.00 0.00 0.00 0.00 0.00 0.01 0.01 0.01 0.00 0.00 0.00 0.00 0.00 0.00 0.00 0.00 0.01 0.00 0.00 0.00 0.01 0.01 0.01 0.02 0.02 0.02
0.00 0.00 0.00 0.00 0.00 0.00 0.00 0.00 0.00 0.00 0.00 0.00 0.00 0.00 0.00 0.00 0.00 0.01 0.01 0.01 0.01 0.01 0.01 0.00 0.00 0.00 0.00 0.00 0.00 0.00 0.00 0.00 0.00 0.00 0.00 0.00 0.00 0.00 0.01 0.01 0.01 0.01 0.01
0.00 0.00 0.00 0.00 0.00 0.00 0.00 0.00 0.00 0.00 0.00 0.00 0.00 0.00 0.00 0.00 0.00 0.01 0.01 0.01 0.01 0.00 0.00 0.00 0.00 0.00 0.00 0.00 0.00 0.00 0.00 0.00 0.00 0.00 0.00 0.00 0.00 0.00 0.00 0.00 0.00 0.00 0.00
0.00 0.00 0.00 0.00 0.00 0.00 0.00 0.00 0.00 0.00 0.00 0.00 0.00 0.00 0.00 0.00 0.00 0.00 0.00 0.00 0.00 0.00 0.00 0.00 0.00 0.00 0.00 0.00 0.00 0.00 0.00 0.00 0.00 0.00 0.00 0.00 0.00 0.00 0.00 0.00 0.00 0.00 0.00
0.00 0.00 0.00 0.00 0.00 0.00 0.00 0.00 0.00 0.00 0.00 0.00 0.00 0.00 0.00 0.00 0.00 0.00 0.00 0.00 0.00 0.00 0.00 0.00 0.00 0.00 0.00 0.00 0.00 0.00 0.00 0.00 0.00 0.00 0.00 0.00 0.00 0.00 0.00 0.00 0.00 0.00 0.00
0.00 0.00 0.00 0.00 0.00 0.00 0.00 0.00 0.00 0.00 0.00 0.00 0.00 0.00 0.00 0.00 0.00 0.00 0.00 0.00 0.00 0.00 0.00 0.00 0.00 0.00 0.00 0.00 0.00 0.00 0.00 0.00 0.00 0.00 0.00 0.00 0.00 0.00 0.01 0.01 0.00 0.00 0.00
0.00 0.00 0.00 0.00 0.00 0.00 0.00 0.00 0.00 0.00 0.00 0.00 0.00 0.00 0.00 0.00 0.00 0.00 0.00 0.00 0.00 0.00 0.00 0.00 0.00 0.00 0.00 0.00 0.00 0.00 0.00 0.00 0.00 0.00 0.00 0.00 0.00 0.01 0.02 0.02 0.01 0.01 0.01
0.00 0.00 0.00 0.00 0.00 0.00 0.00 0.00 0.00 0.00 0.00 0.00 0.00 0.00 0.00 0.00 0.00 0.00 0.00 0.00 0.00 0.00 0.00 0.00 0.00 0.00 0.00 0.00 0.00 0.00 0.00 0.00 0.00 0.00 0.00 0.01 0.01 0.02 0.03 0.04 0.04 0.04 0.04
0.00 0.00 0.00 0.00 0.00 0.00 0.00 0.00 0.00 0.00 0.00 0.00 0.00 0.00 0.00 0.00 0.00 0.00 0.00 0.00 0.00 0.00 0.00 0.00 0.00 0.00 0.00 0.00 0.00 0.00 0.00 0.00 0.00 0.00 0.00 0.00 0.01 0.02 0.03 0.03 0.03 0.04 0.05
0.00 0.00 0.00 0.00 0.00 0.00 0.00 0.00 0.00 0.00 0.00 0.00 0.00 0.00 0.00 0.00 0.00 0.00 0.00 0.00 0.00 0.00 0.00 0.00 0.00 0.00 0.00 0.00 0.00 0.00 0.00 0.00 0.00 0.00 0.00 0.00 0.00 0.01 0.01 0.02 0.02 0.03 0.04
0.00 0.00 0.00 0.01 0.01 0.00 0.00 0.00 0.00 0.00 0.00 0.00 0.00 0.00 0.00 0.00 0.00 0.01 0.01 0.01 0.02 0.02 0.02 0.02 0.01 0.01 0.01 0.01 0.01 0.01 0.01 0.00 0.00 0.00 0.00 0.00 0.00 0.00 0.00 0.01 0.01 0.02 0.03
0.00 0.00 0.01 0.00 0.01 0.01 0.01 0.01 0.01 0.01 0.02 0.01 0.01 0.01 0.02 0.02 0.02 0.03 0.05 0.06 0.06 0.06 0.07 0.06 0.05 0.04 0.03 0.02 0.02 0.01 0.01 0.00 0.00 0.00 0.00 0.00 0.00 0.00 0.00 0.00 0.00 0.00 0.01
0.01 0.00 0.00 0.00 0.01 0.02 0.03 0.03 0.03 0.05 0.06 0.06 0.06 0.07 0.08 0.09 0.09 0.11 0.13 0.13 0.13 0.11 0.10 0.08 0.06 0.04 0.02 0.02 0.01 0.01 0.00 0.00 0.00 0.00 0.00 0.00 0.00 0.00 0.00 0.00 0.00 0.00 0.00
0.01 0.01 0.00 0.01 0.02 0.05 0.08 0.08 0.12 0.18 0.20 0.21 0.20 0.21 0.21 0.23 0.23 0.23 0.21 0.20 0.18 0.13 0.10 0.07 0.04 0.02 0.01 0.01 0.01 0.00 0.00 0.00 0.00 0.00 0.00 0.00 0.00 0.00 0.00 0.00 0.00 0.00 0.00
0.02 0.01 0.02 0.03 0.06 0.13 0.22 0.28 0.35 0.38 0.38 0.38 0.39 0.41 0.40 0.38 0.36 0.33 0.29 0.25 0.18 0.12 0.08 0.05 0.03 0.02 0.01 0.01 0.00 0.00 0.00 0.00 0.00 0.00 0.00 0.00 0.00 0.00 0.00 0.00 0.00 0.00 0.00
0.02 0.03 0.04 0.05 0.13 0.25 0.35 0.41 0.47 0.48 0.45 0.43 0.45 0.49 0.50 0.50 0.46 0.38 0.32 0.24 0.19 0.13 0.08 0.04 0.02 0.01 0.00 0.00 0.00 0.00 0.00 0.00 0.00 0.00 0.00 0.00 0.00 0.00 0.00 0.00 0.00 0.00 0.00
0.04 0.07 0.09 0.11 0.22 0.34 0.46 0.57 0.62 0.62 0.59 0.55 0.54 0.57 0.58 0.53 0.43 0.35 0.29 0.21 0.14 0.08 0.04 0.01 0.00 0.00 0.00 0.00 0.00 0.00 0.00 0.00 0.00 0.00 0.00 0.00 0.00 0.00 0.00 0.00 0.00 0.00 0.00
0.06 0.10 0.12 0.18 0.30 0.48 0.64 0.75 0.74 0.70 0.63 0.56 0.54 0.55 0.50 0.40 0.31 0.25 0.17 0.09 0.05 0.02 0.01 0.00 0.00 0.00 0.00 0.00 0.00 0.00 0.00 0.00 0.00 0.00 0.00 0.00 0.00 0.00 0.00 0.00 0.00 0.00 0.00
0.09 0.14 0.16 0.24 0.39 0.59 0.75 0.76 0.67 0.60 0.54 0.51 0.50 0.49 0.39 0.29 0.22 0.13 0.06 0.03 0.01 0.00 0.00 0.00 0.00 0.00 0.00 0.00 0.00 0.00 0.00 0.00 0.00 0.00 0.00 0.00 0.00 0.00 0.00 0.00 0.00 0.00 0.00
MSLP
1013.29 1013.01 1012.94 1013.08 1013.37 1013.71 1014.04 1014.28 1014.42 1014.47 1014.48 1014.52 1014.64 1014.87 1015.19 1015.59 1016.00 1016.36 1016.63 1016.81 1016.91 1016.97 1017.03 1017.13 1017.28 1017.49 1017.72 1017.95 1018.13 1018.25 1018.29 1018.28 1018.24 1018.19 1018.17 1018.19 1018.24 1018.32 1018.41 1018.51 1018.60 1018.68 1018.77
1012.95 1012.76 1012.79 1013.03 1013.41 1013.83 1014.21 1014.49 1014.65 1014.72 1014.74 1014.80 1014.94 1015.19 1015.54 1015.95 1016.35 1016.71 1016.96 1017.12 1017.19 1017.23 1017.28 1017.37 1017.52 1017.71 1017.93 1018.12 1018.26 1018.34 1018.34 1018.30 1018.24 1018.19 1018.18 1018.22 1018.29 1018.39 1018.50 1018.59 1018.67 1018.75 1018.82
1012.59 1012.50 1012.63 1012.97 1013.43 1013.93 1014.36 1014.69 1014.88 1014.97 1015.03 1015.11 1015.27 1015.53 1015.88 1016.27 1016.65 1016.97 1017.18 1017.29 1017.34 1017.36 1017.39 1017.48 1017.62 1017.81 1018.01 1018.17 1018.28 1018.32 1018.29 1018.23 1018.16 1018.13 1018.15 1018.22 1018.33 1018.45 1018.57 1018.66 1018.74 1018.80 1018.87
1012.29 1012.30 1012.52 1012.95 1013.48 1014.03 1014.51 1014.87 1015.09 1015.21 1015.29 1015.40 1015.57 1015.84 1016.17 1016.53 1016.86 1017.12 1017.28 1017.35 1017.36 1017.36 1017.40 1017.49 1017.64 1017.83 1018.02 1018.16 1018.24 1018.25 1018.21 1018.14 1018.09 1018.08 1018.13 1018.23 1018.37 1018.52 1018.65 1018.75 1018.82 1018.87 1018.94
1012.13 1012.22 1012.51 1012.99 1013.56 1014.14 1014.64 1015.01 1015.25 1015.40 1015.50 1015.63 1015.81 1016.07 1016.38 1016.70 1016.98 1017.18 1017.28 1017.31 1017.31 1017.31 1017.35 1017.46 1017.63 1017.83 1018.02 1018.16 1018.22 1018.22 1018.16 1018.10 1018.06 1018.07 1018.15 1018.29 1018.45 1018.61 1018.75 1018.85 1018.91 1018.96 1019.03
1012.13 1012.28 1012.61 1013.11 1013.68 1014.25 1014.74 1015.11 1015.35 1015.51 1015.63 1015.77 1015.97 1016.22 1016.51 1016.79 1017.02 1017.17 1017.24 1017.25 1017.23 1017.24 1017.31 1017.46 1017.65 1017.87 1018.07 1018.20 1018.26 1018.24 1018.18 1018.12 1018.09 1018.13 1018.23 1018.38 1018.56 1018.73 1018.86 1018.95 1019.01 1019.06 1019.13
1012.29 1012.47 1012.81 1013.29 1013.83 1014.36 1014.80 1015.13 1015.36 1015.51 1015.65 1015.81 1016.03 1016.29 1016.57 1016.84 1017.04 1017.16 1017.20 1017.20 1017.19 1017.22 1017.33 1017.50 1017.73 1017.97 1018.17 1018.31 1018.36 1018.33 1018.27 1018.20 1018.18 1018.22 1018.33 1018.49 1018.66 1018.83 1018.95 1019.03 1019.08 1019.13 1019.21
1012.55 1012.73 1013.06 1013.50 1013.97 1014.42 1014.80 1015.08 1015.27 1015.43 1015.58 1015.77 1016.02 1016.30 1016.59 1016.85 1017.04 1017.15 1017.19 1017.19 1017.20 1017.26 1017.40 1017.60 1017.86 1018.11 1018.32 1018.45 1018.49 1018.46 1018.38 1018.31 1018.28 1018.32 1018.42 1018.57 1018.73 1018.88 1018.99 1019.06 1019.11 1019.16 1019.24
1012.81 1013.00 1013.30 1013.68 1014.08 1014.44 1014.74 1014.96 1015.12 1015.27 1015.45 1015.67 1015.96 1016.28 1016.60 1016.87 1017.06 1017.18 1017.22 1017.24 1017.26 1017.35 1017.51 1017.73 1018.00 1018.26 1018.46 1018.58 1018.61 1018.56 1018.48 1018.40 1018.36 1018.39 1018.47 1018.60 1018.75 1018.87 1018.96 1019.03 1019.08 1019.13 1019.23
1012.99 1013.19 1013.46 1013.79 1014.12 1014.40 1014.63 1014.80 1014.94 1015.09 1015.29 1015.56 1015.89 1016.25 1016.60 1016.89 1017.10 1017.23 1017.28 1017.30 1017.35 1017.45 1017.61 1017.85 1018.11 1018.36 1018.55 1018.65 1018.67 1018.61 1018.52 1018.43 1018.38 1018.40 1018.47 1018.58 1018.70 1018.81 1018.89 1018.95 1019.00 1019.07 1019.17
1013.05 1013.26 1013.53 1013.82 1014.09 1014.32 1014.49 1014.63 1014.76 1014.92 1015.16 1015.46 1015.84 1016.23 1016.61 1016.92 1017.15 1017.28 1017.34 1017.38 1017.43 1017.53 1017.69 1017.92 1018.16 1018.39 1018.56 1018.65 1018.66 1018.60 1018.50 1018.41 1018.36 1018.37 1018.44 1018.53 1018.64 1018.74 1018.81 1018.86 1018.92 1018.99 1019.11
1012.96 1013.20 1013.48 1013.75 1014.00 1014.19 1014.34 1014.47 1014.61 1014.80 1015.06 1015.41 1015.81 1016.23 1016.63 1016.95 1017.19 1017.33 1017.40 1017.44 1017.49 1017.59 1017.75 1017.95 1018.17 1018.38 1018.53 1018.61 1018.61 1018.55 1018.47 1018.39 1018.35 1018.37 1018.43 1018.52 1018.61 1018.70 1018.76 1018.82 1018.87 1018.95 1019.06
1012.73 1013.02 1013.32 1013.60 1013.84 1014.04 1014.19 1014.33 1014.50 1014.72 1015.02 1015.39 1015.81 1016.24 1016.64 1016.97 1017.21 1017.36 1017.44 1017.49 1017.55 1017.65 1017.79 1017.98 1018.19 1018.37 1018.51 1018.58 1018.59 1018.55 1018.49 1018.43 1018.41 1018.44 1018.50 1018.58 1018.68 1018.75 1018.81 1018.86 1018.90 1018.96 1019.06
1012.41 1012.74 1013.06 1013.37 1013.63 1013.85 1014.04 1014.22 1014.42 1014.68 1015.00 1015.39 1015.82 1016.25 1016.64 1016.97 1017.21 1017.37 1017.47 1017.54 1017.63 1017.74 1017.89 1018.07 1018.26 1018.44 1018.57 1018.64 1018.66 1018.64 1018.61 1018.59 1018.59 1018.63 1018.70 1018.78 1018.87 1018.93 1018.98 1019.01 1019.03 1019.06 1019.12
1012.03 1012.38 1012.73 1013.06 1013.36 1013.62 1013.86 1014.10 1014.36 1014.65 1015.00 1015.40 1015.82 1016.23 1016.62 1016.94 1017.19 1017.38 1017.52 1017.64 1017.76 1017.90 1018.07 1018.26 1018.45 1018.62 1018.75 1018.84 1018.88 1018.89 1018.89 1018.90 1018.93 1018.98 1019.05 1019.13 1019.20 1019.25 1019.27 1019.27 1019.26 1019.25 1019.25
1011.59 1011.94 1012.31 1012.66 1013.01 1013.32 1013.63 1013.94 1014.25 1014.60 1014.97 1015.37 1015.79 1016.19 1016.56 1016.88 1017.16 1017.39 1017.59 1017.78 1017.96 1018.16 1018.37 1018.58 1018.78 1018.96 1019.09 1019.19 1019.26 1019.30 1019.33 1019.36 1019.41 1019.48 1019.54 1019.61 1019.65 1019.67 1019.66 1019.62 1019.57 1019.51 1019.45
1011.09 1011.43 1011.80 1012.17 1012.56 1012.94 1013.32 1013.71 1014.10 1014.50 1014.90 1015.31 1015.71 1016.10 1016.47 1016.81 1017.13 1017.43 1017.70 1017.97 1018.24 1018.50 1018.76 1019.00 1019.22 1019.41 1019.55 1019.67 1019.75 1019.81 1019.87 1019.93 1019.99 1020.06 1020.12 1020.16 1020.17 1020.16 1020.11 1020.03 1019.93 1019.82 1019.69
1010.53 1010.84 1011.19 1011.59 1012.02 1012.47 1012.94 1013.41 1013.88 1014.34 1014.78 1015.20 1015.60 1015.99 1016.37 1016.74 1017.11 1017.48 1017.85 1018.21 1018.56 1018.90 1019.21 1019.49 1019.72 1019.92 1020.07 1020.19 1020.29 1020.37 1020.45 1020.53 1020.60 1020.66 1020.70 1020.71 1020.70 1020.65 1020.56 1020.45 1020.31 1020.15 1019.97
1009.91 1010.18 1010.52 1010.93 1011.40 1011.93 1012.49 1013.06 1013.61 1014.14 1014.62 1015.07 1015.49 1015.89 1016.28 1016.69 1017.11 1017.56 1018.01 1018.47 1018.91 1019.31 1019.66 1019.96 1020.21 1020.40 1020.55 1020.68 1020.79 1020.89 1020.99 1021.08 1021.16 1021.21 1021.23 1021.22 1021.17 1021.09 1020.98 1020.84 1020.67 1020.49 1020.28
1009.24 1009.48 1009.81 1010.24 1010.77 1011.37 1012.02 1012.69 1013.34 1013.94 1014.48 1014.96 1015.40 1015.82 1016.24 1016.68 1017.16 1017.67 1018.20 1018.73 1019.23 1019.68 1020.06 1020.37 1020.61 1020.80 1020.95 1021.08 1021.20 1021.31 1021.43 1021.53 1021.61 1021.66 1021.67 1021.63 1021.56 1021.45 1021.32 1021.16 1020.99 1020.80 1020.58
1008.60 1008.81 1009.14 1009.60 1010.18 1010.87 1011.61 1012.38 1013.12 1013.79 1014.39 1014.91 1015.38 1015.81 1016.26 1016.73 1017.25 1017.81 1018.40 1018.98 1019.51 1019.99 1020.38 1020.68 1020.91 1021.08 1021.22 1021.35 1021.48 1021.61 1021.74 1021.86 1021.94 1021.99 1021.98 1021.93 1021.84 1021.71 1021.56 1021.40 1021.24 1021.05 1020.84
1008.05 1008.26 1008.61 1009.10 1009.74 1010.49 1011.33 1012.18 1013.00 1013.75 1014.40 1014.96 1015.45 1015.91 1016.37 1016.87 1017.42 1018.01 1018.62 1019.22 1019.77 1020.24 1020.62 1020.90 1021.11 1021.26 1021.38 1021.51 1021.64 1021.79 1021.93 1022.07 1022.16 1022.20 1022.18 1022.11 1022.00 1021.86 1021.70 1021.54 1021.39 1021.22 1021.03
1007.70 1007.94 1008.30 1008.83 1009.52 1010.33 1011.23 1012.15 1013.04 1013.84 1014.54 1015.13 1015.65 1016.12 1016.60 1017.11 1017.67 1018.27 1018.88 1019.47 1020.01 1020.46 1020.81 1021.06 1021.23 1021.36 1021.47 1021.59 1021.73 1021.89 1022.05 1022.19 1022.28 1022.32 1022.29 1022.20 1022.06 1021.90 1021.73 1021.57 1021.42 1021.26 1021.10
1007.66 1007.91 1008.30 1008.85 1009.57 1010.42 1011.36 1012.32 1013.24 1014.08 1014.81 1015.43 1015.96 1016.44 1016.93 1017.44 1017.99 1018.58 1019.18 1019.75 1020.26 1020.68 1020.99 1021.21 1021.35 1021.45 1021.55 1021.67 1021.81 1021.97 1022.13 1022.27 1022.36 1022.37 1022.32 1022.19 1022.03 1021.84 1021.65 1021.48 1021.32 1021.17 1021.02
1007.95 1008.23 1008.63 1009.19 1009.92 1010.77 1011.72 1012.68 1013.62 1014.46 1015.20 1015.82 1016.36 1016.85 1017.33 1017.84 1018.38 1018.95 1019.53 1020.07 1020.54 1020.92 1021.20 1021.38 1021.50 1021.58 1021.67 1021.77 1021.91 1022.06 1022.21 1022.33 1022.40 1022.38 1022.29 1022.13 1021.92 1021.69 1021.47 1021.27 1021.09 1020.94 1020.78
1008.60 1008.88 1009.28 1009.83 1010.54 1011.36 1012.28 1013.22 1014.13 1014.95 1015.67 1016.29 1016.82 1017.30 1017.78 1018.28 1018.80 1019.35 1019.90 1020.41 1020.85 1021.19 1021.44 1021.60 1021.70 1021.77 1021.84 1021.93 1022.05 1022.19 1022.31 1022.40 1022.42 1022.36 1022.22 1022.01 1021.75 1021.48 1021.21 1020.98 1020.77 1020.59 1020.41
Thickness
5778 5777 5774 5771 5770 5768 5767 5766 5765 5766 5765 5764 5763 5761 5759 5757 5755 5754 5753 5752 5751 5751 5750 5749 5749 5748 5747 5747 5746 5746 5745 5744 5744 5744 5744 5744 5744 5744 5743 5743 5742 5740 5739
5782 5777 5773 5770 5768 5766 5764 5762 5761 5760 5759 5758 5757 5755 5754 5752 5751 5750 5748 5748 5747 5746 5746 5745 5745 5744 5744 5743 5742 5742 5741 5741 5741 5740 5740 5740 5740 5740 5739 5739 5738 5736 5735
5781 5776 5772 5768 5765 5763 5760 5758 5757 5756 5754 5753 5752 5751 5749 5748 5747 5746 5744 5743 5743 5742 5742 5741 5741 5741 5740 5740 5739 5739 5738 5738 5737 5737 5737 5736 5736 5736 5735 5735 5734 5732 5731
5780 5775 5771 5767 5764 5761 5758 5755 5754 5752 5751 5749 5748 5747 5745 5744 5743 5742 5741 5740 5739 5739 5738 5738 5737 5737 5737 5736 5736 5735 5735 5734 5734 5734 5733 5733 5732 5732 5731 5730 5729 5728 5727
5778 5774 5770 5767 5763 5760 5756 5753 5751 5749 5747 5745 5744 5743 5741 5740 5740 5739 5738 5738 5737 5736 5735 5734 5734 5733 5733 5733 5732 5732 5731 5731 5731 5731 5730 5729 5728 5727 5727 5726 5724 5723 5722
5777 5774 5771 5767 5763 5760 5756 5753 5750 5747 5744 5742 5741 5739 5738 5738 5737 5736 5736 5735 5734 5733 5732 5731 5730 5729 5729 5729 5729 5729 5728 5728 5728 5727 5726 5724 5723 5723 5722 5721 5720 5719 5717
5778 5774 5771 5767 5763 5759 5756 5753 5750 5747 5744 5742 5740 5738 5737 5736 5735 5734 5733 5732 5731 5730 5729 5728 5727 5726 5726 5726 5726 5726 5725 5725 5724 5723 5721 5720 5719 5718 5717 5716 5715 5715 5713
5778 5773 5770 5766 5763 5759 5756 5752 5749 5746 5744 5742 5739 5737 5736 5734 5733 5732 5731 5730 5729 5728 5727 5725 5724 5723 5723 5723 5723 5722 5721 5721 5720 5718 5717 5715 5714 5713 5712 5711 5711 5710 5709
5776 5772 5768 5765 5762 5759 5755 5752 5749 5746 5743 5741 5738 5736 5735 5733 5732 5730 5729 5728 5727 5725 5724 5722 5720 5719 5719 5719 5719 5718 5717 5716 5715 5714 5713 5711 5710 5709 5708 5707 5706 5705 5704
5775 5772 5768 5765 5762 5758 5755 5752 5749 5746 5742 5740 5738 5735 5733 5732 5730 5728 5727 5726 5724 5722 5720 5718 5717 5716 5715 5715 5714 5713 5712 5712 5711 5710 5709 5708 5707 5706 5704 5703 5702 5700 5699
5772 5770 5768 5765 5762 5759 5755 5752 5749 5745 5742 5739 5736 5734 5732 5730 5728 5726 5724 5722 5721 5719 5717 5715 5713 5712 5711 5711 5710 5709 5709 5708 5707 5706 5706 5705 5703 5702 5700 5698 5697 5695 5694
5771 5770 5768 5766 5763 5760 5756 5753 5749 5745 5741 5738 5736 5733 5730 5728 5726 5724 5721 5719 5717 5715 5714 5712 5711 5709 5708 5707 5706 5705 5705 5704 5703 5702 5701 5700 5699 5697 5696 5694 5692 5690 5688
5776 5772 5770 5768 5764 5761 5758 5753 5749 5745 5741 5738 5734 5731 5728 5725 5723 5721 5719 5716 5714 5712 5710 5709 5707 5706 5704 5703 5702 5702 5701 5700 5699 5698 5697 5696 5695 5693 5691 5688 5686 5684 5682
5777 5774 5773 5770 5766 5762 5759 5755 5750 5746 5742 5737 5733 5730 5726 5723 5720 5718 5715 5713 5711 5709 5707 5705 5703 5701 5700 5699 5698 5697 5695 5694 5694 5693 5692 5691 5689 5687 5685 5683 5681 5679 5677
5779 5776 5774 5771 5768 5764 5759 5756 5751 5747 5743 5739 5734 5729 5725 5721 5718 5715 5712 5710 5708 5705 5703 5700 5698 5697 5695 5693 5691 5689 5687 5686 5685 5685 5684 5683 5682 5680 5678 5676 5675 5673 5671
5783 5780 5777 5773 5769 5765 5760 5755 5751 5747 5743 5738 5733 5729 5724 5720 5716 5713 5709 5706 5704 5701 5698 5695 5693 5690 5688 5685 5683 5681 5679 5678 5676 5675 5675 5674 5672 5671 5669 5668 5666 5665 5663
5785 5782 5778 5774 5769 5764 5759 5754 5749 5744 5739 5734 5730 5726 5721 5717 5713 5710 5706 5702 5698 5696 5692 5689 5686 5683 5680 5677 5674 5672 5670 5669 5667 5666 5664 5663 5661 5659 5658 5656 5655 5654 5653
5787 5782 5778 5774 5767 5762 5757 5752 5746 5740 5735 5730 5725 5722 5717 5712 5708 5704 5699 5695 5691 5688 5685 5681 5677 5673 5670 5667 5664 5661 5659 5658 5655 5653 5652 5650 5648 5645 5643 5642 5642 5641 5641
5789 5782 5775 5772 5766 5759 5754 5748 5742 5736 5730 5724 5720 5715 5711 5706 5701 5696 5690 5684 5681 5677 5674 5671 5666 5664 5659 5656 5654 5650 5647 5645 5642 5641 5638 5636 5633 5631 5628 5626 5626 5625 5625
5788 5782 5775 5768 5763 5756 5749 5742 5736 5729 5723 5717 5712 5707 5702 5697 5692 5686 5680 5674 5671 5666 5662 5659 5656 5652 5649 5646 5644 5638 5633 5630 5628 5626 5624 5621 5619 5617 5614 5612 5610 5609 5608
5785 5780 5773 5766 5760 5753 5744 5736 5727 5719 5712 5705 5701 5697 5693 5687 5682 5676 5671 5665 5660 5656 5652 5649 5646 5642 5638 5635 5632 5627 5621 5618 5615 5612 5610 5608 5605 5602 5600 5598 5596 5594 5592
5784 5778 5771 5764 5757 5750 5742 5732 5721 5709 5700 5694 5689 5685 5681 5676 5672 5667 5661 5655 5650 5646 5642 5639 5637 5632 5627 5624 5622 5617 5612 5608 5604 5600 5597 5595 5591 5589 5586 5584 5581 5579 5578
5781 5777 5770 5762 5753 5744 5735 5723 5711 5699 5689 5680 5677 5674 5670 5666 5662 5657 5652 5647 5641 5637 5632 5629 5626 5623 5617 5611 5609 5606 5603 5599 5592 5589 5585 5582 5578 5575 5572 5570 5567 5565 5562
5777 5772 5764 5754 5744 5735 5726 5717 5707 5696 5682 5673 5668 5664 5659 5656 5652 5647 5642 5637 5632 5627 5623 5619 5615 5612 5608 5602 5597 5592 5588 5583 5579 5577 5574 5569 5565 5562 5558 5556 5553 5550 5548
5766 5760 5753 5742 5732 5723 5714 5705 5695 5686 5676 5665 5658 5653 5649 5645 5641 5637 5634 5629 5622 5617 5613 5609 5604 5600 5596 5591 5586 5580 5574 5568 5563 5561 5560 5558 5554 5549 5545 5541 5538 5535 5533
5752 5746 5739 5729 5719 5710 5701 5693 5684 5676 5665 5657 5650 5644 5639 5634 5630 5626 5623 5618 5612 5607 5602 5598 5593 5588 5583 5578 5573 5567 5562 5557 5552 5545 5543 5544 5544 5541 5534 5528 5523 5519 5516